Time,TemperatureF,DewpointF,PressureIn,WindDirection,WindDirectionDegrees,WindSpeedMPH,WindSpeedGustMPH,Humidity,HourlyPrecipIn,Conditions,Clouds,dailyrainin,SoftwareType,DateUTC
2013-01-18 00:04:00,24.0,15.0,-100.00,North,-999,-999.0,-999.0,67,-99.99,,,-99.99,,2013-01-18 05:04:00,
2013-01-18 00:12:00,24.0,15.0,-100.00,North,-999,-999.0,-999.0,67,-99.99,,,-99.99,,2013-01-18 05:12:00,
2013-01-18 00:22:00,24.0,15.0,-100.00,North,-999,-999.0,-999.0,69,-99.99,,,-99.99,,2013-01-18 05:22:00,
2013-01-18 00:33:00,24.0,15.0,-100.00,North,-999,-999.0,-999.0,69,-99.99,,,-99.99,,2013-01-18 05:33:00,
2013-01-18 00:42:00,24.0,15.0,-100.00,North,-999,-999.0,-999.0,69,-99.99,,,-99.99,,2013-01-18 05:42:00,
2013-01-18 00:53:00,24.0,16.0,-100.00,North,-999,-999.0,-999.0,70,-99.99,,,-99.99,,2013-01-18 05:53:00,
2013-01-18 01:02:00,23.0,15.0,-100.00,North,-999,-999.0,-999.0,70,-99.99,,,-99.99,,2013-01-18 06:02:00,
2013-01-18 01:12:00,23.0,15.0,-100.00,North,-999,-999.0,-999.0,70,-99.99,,,-99.99,,2013-01-18 06:12:00,
2013-01-18 01:22:00,23.0,14.0,-100.00,North,-999,-999.0,-999.0,68,-99.99,,,-99.99,,2013-01-18 06:22:00,
2013-01-18 01:33:00,23.0,14.0,-100.00,North,-999,-999.0,-999.0,67,-99.99,,,-99.99,,2013-01-18 06:33:00,
2013-01-18 01:43:00,23.0,14.0,-100.00,North,-999,-999.0,-999.0,67,-99.99,,,-99.99,,2013-01-18 06:43:00,
2013-01-18 01:53:00,23.0,14.0,-100.00,North,-999,-999.0,-999.0,68,-99.99,,,-99.99,,2013-01-18 06:53:00,
2013-01-18 02:02:00,23.0,14.0,-100.00,North,-999,-999.0,-999.0,67,-99.99,,,-99.99,,2013-01-18 07:02:00,
2013-01-18 02:12:00,23.0,14.0,-100.00,North,-999,-999.0,-999.0,67,-99.99,,,-99.99,,2013-01-18 07:12:00,
2013-01-18 02:22:00,23.0,13.0,-100.00,North,-999,-999.0,-999.0,66,-99.99,,,-99.99,,2013-01-18 07:22:00,
2013-01-18 02:32:00,22.0,12.0,-100.00,North,-999,-999.0,-999.0,65,-99.99,,,-99.99,,2013-01-18 07:32:00,
2013-01-18 02:42:00,22.0,12.0,-100.00,North,-999,-999.0,-999.0,65,-99.99,,,-99.99,,2013-01-18 07:42:00,
2013-01-18 02:52:00,22.0,12.0,-100.00,North,-999,-999.0,-999.0,64,-99.99,,,-99.99,,2013-01-18 07:52:00,
2013-01-18 03:02:00,22.0,12.0,-100.00,North,-999,-999.0,-999.0,65,-99.99,,,-99.99,,2013-01-18 08:02:00,
2013-01-18 03:12:00,22.0,12.0,-100.00,North,-999,-999.0,-999.0,65,-99.99,,,-99.99,,2013-01-18 08:12:00,
2013-01-18 03:22:00,22.0,12.0,-100.00,North,-999,-999.0,-999.0,64,-99.99,,,-99.99,,2013-01-18 08:22:00,
2013-01-18 03:32:00,22.0,12.0,-100.00,North,-999,-999.0,-999.0,64,-99.99,,,-99.99,,2013-01-18 08:32:00,
2013-01-18 03:42:00,22.0,12.0,-100.00,North,-999,-999.0,-999.0,64,-99.99,,,-99.99,,2013-01-18 08:42:00,
2013-01-18 03:53:00,21.0,11.0,-100.00,North,-999,-999.0,-999.0,65,-99.99,,,-99.99,,2013-01-18 08:53:00,
2013-01-18 04:03:00,21.0,11.0,-100.00,North,-999,-999.0,-999.0,64,-99.99,,,-99.99,,2013-01-18 09:03:00,
2013-01-18 04:12:00,21.0,11.0,-100.00,North,-999,-999.0,-999.0,64,-99.99,,,-99.99,,2013-01-18 09:12:00,
2013-01-18 04:22:00,21.0,11.0,-100.00,North,-999,-999.0,-999.0,64,-99.99,,,-99.99,,2013-01-18 09:22:00,
2013-01-18 04:33:00,21.0,11.0,-100.00,North,-999,-999.0,-999.0,65,-99.99,,,-99.99,,2013-01-18 09:33:00,
2013-01-18 04:42:00,21.0,11.0,-100.00,North,-999,-999.0,-999.0,65,-99.99,,,-99.99,,2013-01-18 09:42:00,
2013-01-18 04:53:00,20.0,9.0,-100.00,North,-999,-999.0,-999.0,62,-99.99,,,-99.99,,2013-01-18 09:53:00,
2013-01-18 05:03:00,20.0,9.0,-100.00,North,-999,-999.0,-999.0,62,-99.99,,,-99.99,,2013-01-18 10:03:00,
2013-01-18 05:12:00,20.0,9.0,-100.00,North,-999,-999.0,-999.0,62,-99.99,,,-99.99,,2013-01-18 10:12:00,
2013-01-18 05:22:00,19.0,8.0,-100.00,North,-999,-999.0,-999.0,62,-99.99,,,-99.99,,2013-01-18 10:22:00,
2013-01-18 05:32:00,17.0,6.0,-100.00,North,-999,-999.0,-999.0,61,-99.99,,,-99.99,,2013-01-18 10:32:00,
2013-01-18 05:43:00,17.0,6.0,-100.00,North,-999,-999.0,-999.0,61,-99.99,,,-99.99,,2013-01-18 10:43:00,
2013-01-18 05:52:00,16.0,4.0,-100.00,North,-999,-999.0,-999.0,58,-99.99,,,-99.99,,2013-01-18 10:52:00,
2013-01-18 06:03:00,16.0,4.0,-100.00,North,-999,-999.0,-999.0,58,-99.99,,,-99.99,,2013-01-18 11:03:00,
2013-01-18 06:12:00,16.0,4.0,-100.00,North,-999,-999.0,-999.0,58,-99.99,,,-99.99,,2013-01-18 11:12:00,
2013-01-18 06:23:00,15.0,3.0,-100.00,North,-999,-999.0,-999.0,58,-99.99,,,-99.99,,2013-01-18 11:23:00,
2013-01-18 06:32:00,14.0,2.0,-100.00,North,-999,-999.0,-999.0,58,-99.99,,,-99.99,,2013-01-18 11:32:00,
2013-01-18 06:42:00,14.0,2.0,-100.00,North,-999,-999.0,-999.0,58,-99.99,,,-99.99,,2013-01-18 11:42:00,
2013-01-18 06:53:00,14.0,2.0,-100.00,North,-999,-999.0,-999.0,57,-99.99,,,-99.99,,2013-01-18 11:53:00,
2013-01-18 07:03:00,13.0,0.0,-100.00,North,-999,-999.0,-999.0,56,-99.99,,,-99.99,,2013-01-18 12:03:00,
2013-01-18 07:12:00,13.0,0.0,-100.00,North,-999,-999.0,-999.0,56,-99.99,,,-99.99,,2013-01-18 12:12:00,
2013-01-18 07:23:00,12.0,0.0,-100.00,North,-999,-999.0,-999.0,57,-99.99,,,-99.99,,2013-01-18 12:23:00,
2013-01-18 07:33:00,12.0,0.0,-100.00,North,-999,-999.0,-999.0,58,-99.99,,,-99.99,,2013-01-18 12:33:00,
2013-01-18 07:43:00,12.0,0.0,-100.00,North,-999,-999.0,-999.0,58,-99.99,,,-99.99,,2013-01-18 12:43:00,
2013-01-18 07:53:00,12.0,0.0,-100.00,North,-999,-999.0,-999.0,57,-99.99,,,-99.99,,2013-01-18 12:53:00,
2013-01-18 08:03:00,12.0,0.0,-100.00,North,-999,-999.0,-999.0,57,-99.99,,,-99.99,,2013-01-18 13:03:00,
2013-01-18 08:12:00,12.0,0.0,-100.00,North,-999,-999.0,-999.0,57,-99.99,,,-99.99,,2013-01-18 13:12:00,
2013-01-18 08:23:00,13.0,0.0,-100.00,North,-999,-999.0,-999.0,55,-99.99,,,-99.99,,2013-01-18 13:23:00,
2013-01-18 08:33:00,14.0,1.0,-100.00,North,-999,-999.0,-999.0,55,-99.99,,,-99.99,,2013-01-18 13:33:00,
2013-01-18 08:43:00,14.0,1.0,-100.00,North,-999,-999.0,-999.0,55,-99.99,,,-99.99,,2013-01-18 13:43:00,
2013-01-18 08:53:00,15.0,1.0,-100.00,North,-999,-999.0,-999.0,54,-99.99,,,-99.99,,2013-01-18 13:53:00,
2013-01-18 09:03:00,14.0,0.0,-100.00,North,-999,-999.0,-999.0,52,-99.99,,,-99.99,,2013-01-18 14:03:00,
2013-01-18 09:12:00,14.0,0.0,-100.00,North,-999,-999.0,-999.0,52,-99.99,,,-99.99,,2013-01-18 14:12:00,
2013-01-18 09:23:00,16.0,1.0,-100.00,North,-999,-999.0,-999.0,50,-99.99,,,-99.99,,2013-01-18 14:23:00,
2013-01-18 09:34:00,16.0,0.0,-100.00,North,-999,-999.0,-999.0,49,-99.99,,,-99.99,,2013-01-18 14:34:00,
2013-01-18 09:43:00,16.0,0.0,-100.00,North,-999,-999.0,-999.0,49,-99.99,,,-99.99,,2013-01-18 14:43:00,
2013-01-18 09:53:00,17.0,0.0,-100.00,North,-999,-999.0,-999.0,47,-99.99,,,-99.99,,2013-01-18 14:53:00,
2013-01-18 10:03:00,16.0,-1.0,-100.00,North,-999,-999.0,-999.0,46,-99.99,,,-99.99,,2013-01-18 15:03:00,
2013-01-18 10:13:00,16.0,-1.0,-100.00,North,-999,-999.0,-999.0,46,-99.99,,,-99.99,,2013-01-18 15:13:00,
2013-01-18 10:23:00,17.0,-1.0,-100.00,North,-999,-999.0,-999.0,44,-99.99,,,-99.99,,2013-01-18 15:23:00,
2013-01-18 10:34:00,18.0,0.0,-100.00,North,-999,-999.0,-999.0,44,-99.99,,,-99.99,,2013-01-18 15:34:00,
2013-01-18 10:43:00,18.0,0.0,-100.00,North,-999,-999.0,-999.0,44,-99.99,,,-99.99,,2013-01-18 15:43:00,
2013-01-18 10:54:00,18.0,-1.0,-100.00,North,-999,-999.0,-999.0,43,-99.99,,,-99.99,,2013-01-18 15:54:00,
2013-01-18 11:03:00,20.0,2.0,-100.00,North,-999,-999.0,-999.0,44,-99.99,,,-99.99,,2013-01-18 16:03:00,
2013-01-18 11:13:00,20.0,2.0,-100.00,North,-999,-999.0,-999.0,44,-99.99,,,-99.99,,2013-01-18 16:13:00,
2013-01-18 11:23:00,19.0,0.0,-100.00,North,-999,-999.0,-999.0,43,-99.99,,,-99.99,,2013-01-18 16:23:00,
2013-01-18 11:33:00,20.0,1.0,-100.00,North,-999,-999.0,-999.0,42,-99.99,,,-99.99,,2013-01-18 16:33:00,
2013-01-18 11:43:00,20.0,1.0,-100.00,North,-999,-999.0,-999.0,42,-99.99,,,-99.99,,2013-01-18 16:43:00,
2013-01-18 11:53:00,20.0,1.0,-100.00,North,-999,-999.0,-999.0,43,-99.99,,,-99.99,,2013-01-18 16:53:00,
2013-01-18 12:03:00,20.0,1.0,-100.00,North,-999,-999.0,-999.0,43,-99.99,,,-99.99,,2013-01-18 17:03:00,
2013-01-18 12:13:00,20.0,1.0,-100.00,North,-999,-999.0,-999.0,43,-99.99,,,-99.99,,2013-01-18 17:13:00,
2013-01-18 12:23:00,22.0,3.0,-100.00,North,-999,-999.0,-999.0,43,-99.99,,,-99.99,,2013-01-18 17:23:00,
2013-01-18 12:33:00,22.0,3.0,-100.00,North,-999,-999.0,-999.0,43,-99.99,,,-99.99,,2013-01-18 17:33:00,
2013-01-18 12:43:00,22.0,3.0,-100.00,North,-999,-999.0,-999.0,43,-99.99,,,-99.99,,2013-01-18 17:43:00,
2013-01-18 12:53:00,21.0,1.0,-100.00,North,-999,-999.0,-999.0,41,-99.99,,,-99.99,,2013-01-18 17:53:00,
2013-01-18 13:03:00,22.0,2.0,-100.00,North,-999,-999.0,-999.0,42,-99.99,,,-99.99,,2013-01-18 18:03:00,
2013-01-18 13:13:00,22.0,2.0,-100.00,North,-999,-999.0,-999.0,42,-99.99,,,-99.99,,2013-01-18 18:13:00,
2013-01-18 13:23:00,24.0,4.0,-100.00,North,-999,-999.0,-999.0,42,-99.99,,,-99.99,,2013-01-18 18:23:00,
2013-01-18 13:33:00,24.0,4.0,-100.00,North,-999,-999.0,-999.0,41,-99.99,,,-99.99,,2013-01-18 18:33:00,
2013-01-18 13:43:00,24.0,4.0,-100.00,North,-999,-999.0,-999.0,41,-99.99,,,-99.99,,2013-01-18 18:43:00,
2013-01-18 13:53:00,24.0,4.0,-100.00,North,-999,-999.0,-999.0,41,-99.99,,,-99.99,,2013-01-18 18:53:00,
2013-01-18 14:03:00,23.0,3.0,-100.00,North,-999,-999.0,-999.0,41,-99.99,,,-99.99,,2013-01-18 19:03:00,
2013-01-18 14:13:00,23.0,3.0,-100.00,North,-999,-999.0,-999.0,41,-99.99,,,-99.99,,2013-01-18 19:13:00,
2013-01-18 14:23:00,23.0,4.0,-100.00,North,-999,-999.0,-999.0,44,-99.99,,,-99.99,,2013-01-18 19:23:00,
2013-01-18 14:33:00,21.0,1.0,-100.00,North,-999,-999.0,-999.0,41,-99.99,,,-99.99,,2013-01-18 19:33:00,
2013-01-18 14:43:00,21.0,1.0,-100.00,North,-999,-999.0,-999.0,41,-99.99,,,-99.99,,2013-01-18 19:43:00,
2013-01-18 14:53:00,21.0,2.0,-100.00,North,-999,-999.0,-999.0,42,-99.99,,,-99.99,,2013-01-18 19:53:00,
2013-01-18 15:03:00,22.0,3.0,-100.00,North,-999,-999.0,-999.0,44,-99.99,,,-99.99,,2013-01-18 20:03:00,
2013-01-18 15:13:00,22.0,3.0,-100.00,North,-999,-999.0,-999.0,44,-99.99,,,-99.99,,2013-01-18 20:13:00,
2013-01-18 15:23:00,21.0,2.0,-100.00,North,-999,-999.0,-999.0,43,-99.99,,,-99.99,,2013-01-18 20:23:00,
2013-01-18 15:33:00,21.0,3.0,-100.00,North,-999,-999.0,-999.0,45,-99.99,,,-99.99,,2013-01-18 20:33:00,
2013-01-18 15:43:00,21.0,3.0,-100.00,North,-999,-999.0,-999.0,45,-99.99,,,-99.99,,2013-01-18 20:43:00,
2013-01-18 15:53:00,19.0,2.0,-100.00,North,-999,-999.0,-999.0,47,-99.99,,,-99.99,,2013-01-18 20:53:00,
2013-01-18 16:03:00,20.0,4.0,-100.00,North,-999,-999.0,-999.0,48,-99.99,,,-99.99,,2013-01-18 21:03:00,
2013-01-18 16:13:00,20.0,4.0,-100.00,North,-999,-999.0,-999.0,48,-99.99,,,-99.99,,2013-01-18 21:13:00,
2013-01-18 16:23:00,19.0,3.0,-100.00,North,-999,-999.0,-999.0,48,-99.99,,,-99.99,,2013-01-18 21:23:00,
2013-01-18 16:33:00,18.0,2.0,-100.00,North,-999,-999.0,-999.0,49,-99.99,,,-99.99,,2013-01-18 21:33:00,
2013-01-18 16:43:00,18.0,2.0,-100.00,North,-999,-999.0,-999.0,49,-99.99,,,-99.99,,2013-01-18 21:43:00,
2013-01-18 16:52:00,17.0,2.0,-100.00,North,-999,-999.0,-999.0,50,-99.99,,,-99.99,,2013-01-18 21:52:00,
2013-01-18 17:03:00,16.0,1.0,-100.00,North,-999,-999.0,-999.0,51,-99.99,,,-99.99,,2013-01-18 22:03:00,
2013-01-18 17:12:00,16.0,1.0,-100.00,North,-999,-999.0,-999.0,51,-99.99,,,-99.99,,2013-01-18 22:12:00,
2013-01-18 17:23:00,15.0,1.0,-100.00,North,-999,-999.0,-999.0,53,-99.99,,,-99.99,,2013-01-18 22:23:00,
2013-01-18 17:33:00,15.0,2.0,-100.00,North,-999,-999.0,-999.0,56,-99.99,,,-99.99,,2013-01-18 22:33:00,
2013-01-18 17:43:00,15.0,2.0,-100.00,North,-999,-999.0,-999.0,56,-99.99,,,-99.99,,2013-01-18 22:43:00,
2013-01-18 17:53:00,13.0,1.0,-100.00,North,-999,-999.0,-999.0,58,-99.99,,,-99.99,,2013-01-18 22:53:00,
2013-01-18 18:03:00,14.0,1.0,-100.00,North,-999,-999.0,-999.0,56,-99.99,,,-99.99,,2013-01-18 23:03:00,
2013-01-18 18:12:00,14.0,1.0,-100.00,North,-999,-999.0,-999.0,56,-99.99,,,-99.99,,2013-01-18 23:12:00,
2013-01-18 18:23:00,12.0,0.0,-100.00,North,-999,-999.0,-999.0,59,-99.99,,,-99.99,,2013-01-18 23:23:00,
2013-01-18 18:33:00,11.0,1.0,-100.00,North,-999,-999.0,-999.0,62,-99.99,,,-99.99,,2013-01-18 23:33:00,
2013-01-18 18:43:00,11.0,1.0,-100.00,North,-999,-999.0,-999.0,62,-99.99,,,-99.99,,2013-01-18 23:43:00,
2013-01-18 18:53:00,11.0,1.0,-100.00,North,-999,-999.0,-999.0,63,-99.99,,,-99.99,,2013-01-18 23:53:00,
2013-01-18 19:02:00,11.0,1.0,-100.00,North,-999,-999.0,-999.0,63,-99.99,,,-99.99,,2013-01-19 00:02:00,
2013-01-18 19:12:00,11.0,1.0,-100.00,North,-999,-999.0,-999.0,63,-99.99,,,-99.99,,2013-01-19 00:12:00,
2013-01-18 19:23:00,11.0,1.0,-100.00,North,-999,-999.0,-999.0,62,-99.99,,,-99.99,,2013-01-19 00:23:00,
2013-01-18 19:33:00,10.0,0.0,-100.00,North,-999,-999.0,-999.0,64,-99.99,,,-99.99,,2013-01-19 00:33:00,
2013-01-18 19:43:00,10.0,0.0,-100.00,North,-999,-999.0,-999.0,64,-99.99,,,-99.99,,2013-01-19 00:43:00,
2013-01-18 19:53:00,10.0,1.0,-100.00,North,-999,-999.0,-999.0,65,-99.99,,,-99.99,,2013-01-19 00:53:00,
2013-01-18 20:02:00,10.0,1.0,-100.00,North,-999,-999.0,-999.0,66,-99.99,,,-99.99,,2013-01-19 01:02:00,
2013-01-18 20:12:00,10.0,1.0,-100.00,North,-999,-999.0,-999.0,66,-99.99,,,-99.99,,2013-01-19 01:12:00,
2013-01-18 20:23:00,10.0,2.0,-100.00,North,-999,-999.0,-999.0,68,-99.99,,,-99.99,,2013-01-19 01:23:00,
2013-01-18 20:33:00,9.0,0.0,-100.00,North,-999,-999.0,-999.0,67,-99.99,,,-99.99,,2013-01-19 01:33:00,
2013-01-18 20:43:00,9.0,0.0,-100.00,North,-999,-999.0,-999.0,67,-99.99,,,-99.99,,2013-01-19 01:43:00,
2013-01-18 20:53:00,10.0,2.0,-100.00,North,-999,-999.0,-999.0,69,-99.99,,,-99.99,,2013-01-19 01:53:00,
2013-01-18 21:03:00,12.0,3.0,-100.00,North,-999,-999.0,-999.0,67,-99.99,,,-99.99,,2013-01-19 02:03:00,
2013-01-18 21:12:00,12.0,3.0,-100.00,North,-999,-999.0,-999.0,67,-99.99,,,-99.99,,2013-01-19 02:12:00,
2013-01-18 21:23:00,12.0,3.0,-100.00,North,-999,-999.0,-999.0,66,-99.99,,,-99.99,,2013-01-19 02:23:00,
2013-01-18 21:33:00,13.0,3.0,-100.00,North,-999,-999.0,-999.0,65,-99.99,,,-99.99,,2013-01-19 02:33:00,
2013-01-18 21:43:00,13.0,3.0,-100.00,North,-999,-999.0,-999.0,65,-99.99,,,-99.99,,2013-01-19 02:43:00,
2013-01-18 21:53:00,13.0,3.0,-100.00,North,-999,-999.0,-999.0,65,-99.99,,,-99.99,,2013-01-19 02:53:00,
2013-01-18 22:03:00,13.0,3.0,-100.00,North,-999,-999.0,-999.0,65,-99.99,,,-99.99,,2013-01-19 03:03:00,
2013-01-18 22:12:00,13.0,3.0,-100.00,North,-999,-999.0,-999.0,65,-99.99,,,-99.99,,2013-01-19 03:12:00,
2013-01-18 22:23:00,12.0,3.0,-100.00,North,-999,-999.0,-999.0,66,-99.99,,,-99.99,,2013-01-19 03:23:00,
2013-01-18 22:33:00,12.0,3.0,-100.00,North,-999,-999.0,-999.0,67,-99.99,,,-99.99,,2013-01-19 03:33:00,
2013-01-18 22:43:00,12.0,3.0,-100.00,North,-999,-999.0,-999.0,67,-99.99,,,-99.99,,2013-01-19 03:43:00,
2013-01-18 22:53:00,13.0,4.0,-100.00,North,-999,-999.0,-999.0,67,-99.99,,,-99.99,,2013-01-19 03:53:00,
2013-01-18 23:02:00,13.0,4.0,-100.00,North,-999,-999.0,-999.0,67,-99.99,,,-99.99,,2013-01-19 04:02:00,
2013-01-18 23:12:00,13.0,4.0,-100.00,North,-999,-999.0,-999.0,67,-99.99,,,-99.99,,2013-01-19 04:12:00,
2013-01-18 23:22:00,14.0,5.0,-100.00,North,-999,-999.0,-999.0,67,-99.99,,,-99.99,,2013-01-19 04:22:00,
2013-01-18 23:33:00,14.0,5.0,-100.00,North,-999,-999.0,-999.0,66,-99.99,,,-99.99,,2013-01-19 04:33:00,
2013-01-18 23:42:00,14.0,5.0,-100.00,North,-999,-999.0,-999.0,66,-99.99,,,-99.99,,2013-01-19 04:42:00,
2013-01-18 23:53:00,16.0,7.0,-100.00,North,-999,-999.0,-999.0,66,-99.99,,,-99.99,,2013-01-19 04:53:00,